Time,TemperatureF,DewpointF,PressureIn,WindDirection,WindDirectionDegrees,WindSpeedMPH,WindSpeedGustMPH,Humidity,HourlyPrecipIn,Conditions,Clouds,dailyrainin,SoftwareType,DateUTC
2013-02-10 00:04:00,31.1,22.0,29.91,North,355,0.0,0.0,71,0.00,,,0.00,TxWx,2013-02-10 06:04:00,
2013-02-10 00:09:00,31.2,21.0,29.90,North,355,0.0,0.0,70,0.00,,,0.00,TxWx,2013-02-10 06:09:00,
2013-02-10 00:14:00,31.2,21.0,29.90,North,351,0.0,0.0,70,0.00,,,0.00,TxWx,2013-02-10 06:14:00,
2013-02-10 00:19:00,31.3,21.0,29.90,North,354,0.0,0.0,70,0.00,,,0.00,TxWx,2013-02-10 06:19:00,
2013-02-10 00:25:00,31.5,21.0,29.90,North,353,0.0,0.0,69,0.00,,,0.00,TxWx,2013-02-10 06:25:00,
2013-02-10 00:30:00,31.4,21.0,29.90,North,351,0.0,0.0,69,0.00,,,0.00,TxWx,2013-02-10 06:30:00,
2013-02-10 00:35:00,31.4,21.0,29.90,North,358,0.0,0.0,69,0.00,,,0.00,TxWx,2013-02-10 06:35:00,
2013-02-10 00:40:00,31.4,21.0,29.90,North,357,0.0,0.0,69,0.00,,,0.00,TxWx,2013-02-10 06:40:00,
2013-02-10 00:45:00,31.4,21.0,29.89,North,353,0.0,0.0,69,0.00,,,0.00,TxWx,2013-02-10 06:45:00,
2013-02-10 00:51:00,31.3,21.0,29.89,North,358,0.0,0.0,69,0.00,,,0.00,TxWx,2013-02-10 06:51:00,
2013-02-10 00:56:00,31.3,21.0,29.89,North,358,0.0,0.0,69,0.00,,,0.00,TxWx,2013-02-10 06:56:00,
2013-02-10 01:01:00,31.2,21.0,29.89,North,357,0.0,0.0,69,0.00,,,0.00,TxWx,2013-02-10 07:01:00,
2013-02-10 01:06:00,31.2,21.0,29.89,North,353,0.0,0.0,69,0.00,,,0.00,TxWx,2013-02-10 07:06:00,
2013-02-10 01:11:00,31.3,21.0,29.89,North,8,0.0,0.0,69,0.00,,,0.00,TxWx,2013-02-10 07:11:00,
2013-02-10 01:17:00,31.2,21.0,29.89,North,5,0.0,0.0,69,0.00,,,0.00,TxWx,2013-02-10 07:17:00,
2013-02-10 01:22:00,31.2,21.0,29.90,North,4,0.0,0.0,69,0.00,,,0.00,TxWx,2013-02-10 07:22:00,
2013-02-10 01:27:00,31.1,21.0,29.90,North,1,0.0,0.0,69,0.00,,,0.00,TxWx,2013-02-10 07:27:00,
2013-02-10 01:32:00,31.1,21.0,29.90,North,3,0.0,0.0,69,0.00,,,0.00,TxWx,2013-02-10 07:32:00,
2013-02-10 01:37:00,30.9,21.0,29.90,North,2,0.0,0.0,69,0.00,,,0.00,TxWx,2013-02-10 07:37:00,
2013-02-10 01:43:00,30.9,21.0,29.90,North,8,0.0,0.0,70,0.00,,,0.00,TxWx,2013-02-10 07:43:00,
2013-02-10 01:48:00,30.9,21.0,29.90,North,9,0.0,0.0,70,0.00,,,0.00,TxWx,2013-02-10 07:48:00,
2013-02-10 01:53:00,31.0,21.0,29.90,North,7,0.0,0.0,70,0.00,,,0.00,TxWx,2013-02-10 07:53:00,
2013-02-10 01:58:00,31.0,21.0,29.90,North,6,0.0,0.0,70,0.00,,,0.00,TxWx,2013-02-10 07:58:00,
2013-02-10 02:03:00,31.0,21.0,29.91,North,7,0.0,0.0,69,0.00,,,0.00,TxWx,2013-02-10 08:03:00,
2013-02-10 02:08:00,31.0,21.0,29.90,North,1,0.0,0.0,69,0.00,,,0.00,TxWx,2013-02-10 08:08:00,
2013-02-10 02:13:00,31.1,21.0,29.90,North,358,0.0,0.0,69,0.00,,,0.00,TxWx,2013-02-10 08:13:00,
2013-02-10 02:19:00,31.1,21.0,29.90,North,359,0.0,0.0,69,0.00,,,0.00,TxWx,2013-02-10 08:19:00,
2013-02-10 02:24:00,31.2,21.0,29.90,North,2,0.0,0.0,69,0.00,,,0.00,TxWx,2013-02-10 08:24:00,
2013-02-10 02:29:00,31.3,21.0,29.89,North,2,0.0,0.0,69,0.00,,,0.00,TxWx,2013-02-10 08:29:00,
2013-02-10 02:34:00,31.4,21.0,29.89,North,2,0.0,0.0,69,0.00,,,0.00,TxWx,2013-02-10 08:34:00,
2013-02-10 02:39:00,31.3,21.0,29.89,North,2,0.0,0.0,69,0.00,,,0.00,TxWx,2013-02-10 08:39:00,
2013-02-10 02:45:00,31.5,21.0,29.88,North,3,0.0,0.0,69,0.00,,,0.00,TxWx,2013-02-10 08:45:00,
2013-02-10 02:50:00,31.5,21.0,29.88,North,11,0.0,0.0,69,0.00,,,0.00,TxWx,2013-02-10 08:50:00,
2013-02-10 02:55:00,31.5,22.0,29.87,NNE,26,0.0,0.0,69,0.00,,,0.00,TxWx,2013-02-10 08:55:00,
2013-02-10 03:00:00,31.7,22.0,29.87,North,7,0.0,0.0,69,0.00,,,0.00,TxWx,2013-02-10 09:00:00,
2013-02-10 03:05:00,31.9,22.0,29.87,North,2,0.0,0.0,69,0.00,,,0.00,TxWx,2013-02-10 09:05:00,
2013-02-10 03:10:00,31.8,22.0,29.87,NNE,24,0.0,0.0,69,0.00,,,0.00,TxWx,2013-02-10 09:10:00,
2013-02-10 03:15:00,31.9,22.0,29.86,North,5,0.0,0.0,68,0.00,,,0.00,TxWx,2013-02-10 09:15:00,
2013-02-10 03:21:00,32.1,22.0,29.86,North,1,0.0,0.0,69,0.00,,,0.00,TxWx,2013-02-10 09:21:00,
2013-02-10 03:26:00,31.9,22.0,29.86,North,2,0.0,0.0,68,0.00,,,0.00,TxWx,2013-02-10 09:26:00,
2013-02-10 03:31:00,32.1,22.0,29.86,North,359,0.0,0.0,68,0.00,,,0.00,TxWx,2013-02-10 09:31:00,
2013-02-10 03:36:00,32.2,22.0,29.86,North,2,0.0,0.0,68,0.00,,,0.00,TxWx,2013-02-10 09:36:00,
2013-02-10 03:41:00,32.2,22.0,29.86,North,359,0.0,0.0,68,0.00,,,0.00,TxWx,2013-02-10 09:41:00,
2013-02-10 03:47:00,32.1,22.0,29.86,North,1,0.0,0.0,68,0.00,,,0.00,TxWx,2013-02-10 09:47:00,
2013-02-10 03:52:00,32.1,22.0,29.86,North,1,0.0,0.0,69,0.00,,,0.00,TxWx,2013-02-10 09:52:00,
2013-02-10 03:57:00,32.2,22.0,29.86,North,1,0.0,0.0,69,0.00,,,0.00,TxWx,2013-02-10 09:57:00,
2013-02-10 04:02:00,32.2,22.0,29.86,North,1,0.0,0.0,69,0.00,,,0.00,TxWx,2013-02-10 10:02:00,
2013-02-10 04:07:00,32.2,22.0,29.86,North,360,0.0,0.0,69,0.00,,,0.00,TxWx,2013-02-10 10:07:00,
2013-02-10 04:13:00,32.2,22.0,29.85,North,358,0.0,0.0,69,0.00,,,0.00,TxWx,2013-02-10 10:13:00,
2013-02-10 04:18:00,32.1,22.0,29.85,North,357,0.0,0.0,69,0.00,,,0.00,TxWx,2013-02-10 10:18:00,
2013-02-10 04:23:00,32.0,22.0,29.85,North,357,0.0,0.0,70,0.00,,,0.00,TxWx,2013-02-10 10:23:00,
2013-02-10 04:29:00,32.0,22.0,29.84,North,356,0.0,0.0,70,0.00,,,0.00,TxWx,2013-02-10 10:29:00,
2013-02-10 04:34:00,32.1,22.0,29.83,North,357,0.0,0.0,71,0.00,,,0.00,TxWx,2013-02-10 10:34:00,
2013-02-10 04:39:00,32.0,23.0,29.83,North,359,0.0,0.0,71,0.00,,,0.00,TxWx,2013-02-10 10:39:00,
2013-02-10 04:44:00,32.1,23.0,29.83,North,358,0.0,0.0,72,0.00,,,0.00,TxWx,2013-02-10 10:44:00,
2013-02-10 04:50:00,32.1,23.0,29.83,North,360,0.0,0.0,73,0.00,,,0.00,TxWx,2013-02-10 10:50:00,
2013-02-10 04:55:00,32.2,23.0,29.83,North,358,0.0,0.0,74,0.00,,,0.00,TxWx,2013-02-10 10:55:00,
2013-02-10 05:00:00,32.3,24.0,29.83,North,356,0.0,0.0,75,0.00,,,0.00,TxWx,2013-02-10 11:00:00,
2013-02-10 05:05:00,32.6,25.0,29.83,North,1,0.0,0.0,74,0.00,,,0.00,TxWx,2013-02-10 11:05:00,
2013-02-10 05:11:00,32.7,25.0,29.83,North,355,0.0,0.0,75,0.00,,,0.00,TxWx,2013-02-10 11:11:00,
2013-02-10 05:16:00,32.7,25.0,29.83,North,359,0.0,0.0,75,0.00,,,0.00,TxWx,2013-02-10 11:16:00,
2013-02-10 05:21:00,32.7,25.0,29.83,North,358,0.0,0.0,76,0.00,,,0.00,TxWx,2013-02-10 11:21:00,
2013-02-10 05:26:00,32.7,25.0,29.83,North,355,0.0,0.0,76,0.00,,,0.00,TxWx,2013-02-10 11:26:00,
2013-02-10 05:31:00,32.7,25.0,29.83,North,356,0.0,0.0,77,0.00,,,0.00,TxWx,2013-02-10 11:31:00,
2013-02-10 05:36:00,32.7,26.0,29.83,North,358,0.0,0.0,77,0.00,,,0.00,TxWx,2013-02-10 11:36:00,
2013-02-10 05:42:00,32.8,26.0,29.83,North,358,0.0,0.0,77,0.00,,,0.00,TxWx,2013-02-10 11:42:00,
2013-02-10 05:47:00,32.8,26.0,29.83,North,357,0.0,0.0,78,0.00,,,0.00,TxWx,2013-02-10 11:47:00,
2013-02-10 05:52:00,32.9,26.0,29.82,North,0,0.0,0.0,78,0.00,,,0.00,TxWx,2013-02-10 11:52:00,
2013-02-10 05:57:00,32.9,26.0,29.82,North,0,0.0,0.0,79,0.00,,,0.00,TxWx,2013-02-10 11:57:00,
2013-02-10 06:03:00,32.8,26.0,29.82,North,359,0.0,0.0,79,0.00,,,0.00,TxWx,2013-02-10 12:03:00,
2013-02-10 06:08:00,32.9,26.0,29.82,North,1,0.0,0.0,80,0.00,,,0.00,TxWx,2013-02-10 12:08:00,
2013-02-10 06:13:00,32.9,27.0,29.82,North,358,0.0,0.0,80,0.00,,,0.00,TxWx,2013-02-10 12:13:00,
2013-02-10 06:19:00,33.0,27.0,29.82,North,358,0.0,0.0,80,0.00,,,0.00,TxWx,2013-02-10 12:19:00,
2013-02-10 06:24:00,33.1,27.0,29.81,North,359,0.0,0.0,80,0.00,,,0.00,TxWx,2013-02-10 12:24:00,
2013-02-10 06:29:00,33.2,27.0,29.80,North,360,0.0,0.0,80,0.00,,,0.00,TxWx,2013-02-10 12:29:00,
2013-02-10 06:34:00,33.2,27.0,29.80,North,4,0.0,0.0,81,0.00,,,0.00,TxWx,2013-02-10 12:34:00,
2013-02-10 06:40:00,33.2,27.0,29.80,North,360,0.0,0.0,81,0.00,,,0.00,TxWx,2013-02-10 12:40:00,
2013-02-10 06:45:00,33.3,27.0,29.80,North,3,0.0,0.0,81,0.00,,,0.00,TxWx,2013-02-10 12:45:00,
2013-02-10 06:50:00,33.2,27.0,29.80,North,2,0.0,0.0,81,0.00,,,0.00,TxWx,2013-02-10 12:50:00,
2013-02-10 06:55:00,33.3,27.0,29.80,North,359,0.0,0.0,81,0.00,,,0.00,TxWx,2013-02-10 12:55:00,
2013-02-10 07:01:00,33.3,27.0,29.79,North,359,0.0,0.0,81,0.00,,,0.00,TxWx,2013-02-10 13:01:00,
2013-02-10 07:06:00,33.3,27.0,29.79,North,357,0.0,0.0,81,0.00,,,0.00,TxWx,2013-02-10 13:06:00,
2013-02-10 07:11:00,33.3,27.0,29.78,North,0,0.0,0.0,81,0.00,,,0.00,TxWx,2013-02-10 13:11:00,
2013-02-10 07:16:00,33.3,27.0,29.78,North,359,0.0,0.0,81,0.00,,,0.00,TxWx,2013-02-10 13:16:00,
2013-02-10 07:21:00,33.3,27.0,29.78,North,359,0.0,0.0,81,0.00,,,0.00,TxWx,2013-02-10 13:21:00,
2013-02-10 07:27:00,33.3,27.0,29.78,North,2,0.0,0.0,81,0.00,,,0.00,TxWx,2013-02-10 13:27:00,
2013-02-10 07:32:00,33.3,27.0,29.77,North,5,0.0,0.0,81,0.00,,,0.00,TxWx,2013-02-10 13:32:00,
2013-02-10 07:37:00,33.4,27.0,29.77,North,4,0.0,0.0,81,0.00,,,0.00,TxWx,2013-02-10 13:37:00,
2013-02-10 07:43:00,33.6,28.0,29.76,North,1,0.0,0.0,81,0.00,,,0.00,TxWx,2013-02-10 13:43:00,
2013-02-10 07:48:00,33.7,28.0,29.77,North,7,0.0,0.0,81,0.00,,,0.00,TxWx,2013-02-10 13:48:00,
2013-02-10 07:53:00,33.9,28.0,29.76,North,2,0.0,0.0,81,0.00,,,0.00,TxWx,2013-02-10 13:53:00,
2013-02-10 07:58:00,33.9,28.0,29.75,North,357,0.0,0.0,81,0.00,,,0.00,TxWx,2013-02-10 13:58:00,
2013-02-10 08:03:00,34.0,28.0,29.75,North,359,0.0,0.0,81,0.00,,,0.00,TxWx,2013-02-10 14:03:00,
2013-02-10 08:08:00,34.1,28.0,29.76,North,357,0.0,0.0,81,0.00,,,0.00,TxWx,2013-02-10 14:08:00,
2013-02-10 08:16:00,34.3,28.0,29.76,North,355,0.0,0.0,81,0.00,,,0.00,TxWx,2013-02-10 14:16:00,
2013-02-10 08:21:00,34.2,28.0,29.75,North,359,0.0,0.0,81,0.00,,,0.00,TxWx,2013-02-10 14:21:00,
2013-02-10 08:26:00,34.2,28.0,29.77,North,1,0.0,0.0,82,0.00,,,0.00,TxWx,2013-02-10 14:26:00,
2013-02-10 08:31:00,34.1,28.0,29.77,North,357,0.0,0.0,82,0.00,,,0.00,TxWx,2013-02-10 14:31:00,
2013-02-10 08:37:00,34.0,28.0,29.77,North,1,0.0,0.0,82,0.00,,,0.00,TxWx,2013-02-10 14:37:00,
2013-02-10 08:42:00,34.2,28.0,29.77,North,5,0.0,0.0,82,0.00,,,0.00,TxWx,2013-02-10 14:42:00,
2013-02-10 08:47:00,34.6,29.0,29.76,North,1,0.0,0.0,82,0.00,,,0.00,TxWx,2013-02-10 14:47:00,
2013-02-10 08:53:00,34.8,29.0,29.76,North,4,0.0,0.0,82,0.00,,,0.00,TxWx,2013-02-10 14:53:00,
2013-02-10 08:58:00,34.8,29.0,29.76,North,2,0.0,0.0,82,0.00,,,0.00,TxWx,2013-02-10 14:58:00,
2013-02-10 09:03:00,34.9,29.0,29.75,North,6,0.0,0.0,82,0.00,,,0.00,TxWx,2013-02-10 15:03:00,
2013-02-10 09:08:00,35.1,29.0,29.75,North,357,0.0,0.0,82,0.00,,,0.00,TxWx,2013-02-10 15:08:00,
2013-02-10 09:14:00,35.3,29.0,29.75,North,3,0.0,0.0,81,0.00,,,0.00,TxWx,2013-02-10 15:14:00,
2013-02-10 09:19:00,35.5,29.0,29.75,North,0,0.0,0.0,80,0.00,,,0.00,TxWx,2013-02-10 15:19:00,
2013-02-10 09:24:00,35.8,29.0,29.75,North,359,0.0,0.0,79,0.00,,,0.00,TxWx,2013-02-10 15:24:00,
2013-02-10 09:29:00,35.9,29.0,29.74,North,1,0.0,0.0,78,0.00,,,0.00,TxWx,2013-02-10 15:29:00,
2013-02-10 09:34:00,36.0,28.0,29.74,North,359,0.0,0.0,77,0.00,,,0.00,TxWx,2013-02-10 15:34:00,
2013-02-10 09:39:00,36.2,28.0,29.74,North,5,0.0,0.0,76,0.00,,,0.00,TxWx,2013-02-10 15:39:00,
2013-02-10 09:44:00,36.4,28.0,29.74,North,6,0.0,0.0,75,0.00,,,0.00,TxWx,2013-02-10 15:44:00,
2013-02-10 09:49:00,36.5,29.0,29.73,NNE,18,0.0,0.0,75,0.00,,,0.00,TxWx,2013-02-10 15:49:00,
2013-02-10 09:55:00,36.7,28.0,29.73,NNE,12,0.0,0.0,74,0.00,,,0.00,TxWx,2013-02-10 15:55:00,
2013-02-10 10:00:00,36.7,28.0,29.72,NNE,20,0.0,0.0,74,0.00,,,0.00,TxWx,2013-02-10 16:00:00,
2013-02-10 10:05:00,36.9,28.0,29.72,North,3,0.0,0.0,74,0.00,,,0.00,TxWx,2013-02-10 16:05:00,
2013-02-10 10:10:00,36.8,28.0,29.71,North,358,0.0,0.0,74,0.00,,,0.00,TxWx,2013-02-10 16:10:00,
2013-02-10 10:15:00,36.8,28.0,29.70,North,0,0.0,0.0,74,0.00,,,0.00,TxWx,2013-02-10 16:15:00,
2013-02-10 10:20:00,36.9,29.0,29.70,North,1,0.0,0.0,75,0.00,,,0.00,TxWx,2013-02-10 16:20:00,
2013-02-10 10:25:00,37.0,29.0,29.70,North,5,0.0,0.0,75,0.00,,,0.00,TxWx,2013-02-10 16:25:00,
2013-02-10 10:31:00,37.1,29.0,29.69,North,357,0.0,0.0,76,0.00,,,0.00,TxWx,2013-02-10 16:31:00,
2013-02-10 10:36:00,37.2,29.0,29.69,NNE,12,0.0,0.0,77,0.00,,,0.00,TxWx,2013-02-10 16:36:00,
2013-02-10 10:41:00,37.3,29.0,29.68,North,3,0.0,0.0,77,0.00,,,0.00,TxWx,2013-02-10 16:41:00,
2013-02-10 10:46:00,37.5,29.0,29.68,North,3,0.0,0.0,77,0.00,,,0.00,TxWx,2013-02-10 16:46:00,
2013-02-10 10:52:00,37.5,30.0,29.67,North,4,0.0,0.0,77,0.00,,,0.00,TxWx,2013-02-10 16:52:00,
2013-02-10 10:57:00,37.6,30.0,29.67,North,358,0.0,0.0,77,0.00,,,0.00,TxWx,2013-02-10 16:57:00,
2013-02-10 11:02:00,37.6,30.0,29.67,North,6,0.0,0.0,77,0.00,,,0.00,TxWx,2013-02-10 17:02:00,
2013-02-10 11:07:00,37.7,30.0,29.66,North,7,0.0,0.0,77,0.00,,,0.00,TxWx,2013-02-10 17:07:00,
2013-02-10 11:12:00,37.9,30.0,29.66,North,359,0.0,0.0,77,0.00,,,0.00,TxWx,2013-02-10 17:12:00,
2013-02-10 11:18:00,38.1,30.0,29.65,North,358,0.0,0.0,77,0.00,,,0.00,TxWx,2013-02-10 17:18:00,
2013-02-10 11:23:00,38.3,30.0,29.65,North,359,0.0,0.0,77,0.00,,,0.00,TxWx,2013-02-10 17:23:00,
2013-02-10 11:28:00,38.6,32.0,29.64,North,6,0.0,0.0,77,0.00,,,0.00,TxWx,2013-02-10 17:28:00,
2013-02-10 11:33:00,38.8,32.0,29.63,North,1,0.0,0.0,77,0.00,,,0.00,TxWx,2013-02-10 17:33:00,
2013-02-10 11:38:00,39.0,32.0,29.63,North,5,0.0,0.0,77,0.00,,,0.00,TxWx,2013-02-10 17:38:00,
2013-02-10 11:44:00,39.2,32.0,29.62,North,6,0.0,0.0,77,0.00,,,0.00,TxWx,2013-02-10 17:44:00,
2013-02-10 11:49:00,40.0,33.0,29.61,North,0,0.0,0.0,77,0.00,,,0.00,TxWx,2013-02-10 17:49:00,
2013-02-10 11:54:00,40.4,33.0,29.62,North,6,0.0,0.0,76,0.00,,,0.00,TxWx,2013-02-10 17:54:00,
2013-02-10 11:59:00,40.7,34.0,29.61,North,6,0.0,0.0,75,0.00,,,0.00,TxWx,2013-02-10 17:59:00,
2013-02-10 12:05:00,40.7,34.0,29.61,North,2,0.0,0.0,75,0.00,,,0.00,TxWx,2013-02-10 18:05:00,
2013-02-10 12:10:00,40.7,34.0,29.61,North,360,0.0,0.0,75,0.00,,,0.00,TxWx,2013-02-10 18:10:00,
2013-02-10 12:15:00,40.6,34.0,29.60,North,2,0.0,0.0,76,0.00,,,0.00,TxWx,2013-02-10 18:15:00,
2013-02-10 12:20:00,40.4,33.0,29.60,North,6,0.0,0.0,77,0.00,,,0.01,TxWx,2013-02-10 18:20:00,
2013-02-10 12:25:00,40.3,34.0,29.60,North,4,0.0,0.0,78,0.00,,,0.01,TxWx,2013-02-10 18:25:00,
2013-02-10 12:30:00,40.7,34.0,29.60,North,3,0.0,0.0,78,0.00,,,0.01,TxWx,2013-02-10 18:30:00,
2013-02-10 12:35:00,41.3,34.0,29.60,North,360,0.0,0.0,77,0.00,,,0.01,TxWx,2013-02-10 18:35:00,
2013-02-10 12:40:00,41.6,35.0,29.59,North,0,0.0,0.0,75,0.00,,,0.01,TxWx,2013-02-10 18:40:00,
2013-02-10 12:45:00,41.9,34.0,29.58,North,356,0.0,0.0,74,0.00,,,0.01,TxWx,2013-02-10 18:45:00,
2013-02-10 12:50:00,42.0,34.0,29.58,North,3,0.0,0.0,74,0.00,,,0.01,TxWx,2013-02-10 18:50:00,
2013-02-10 12:56:00,42.0,34.0,29.57,North,3,0.0,0.0,74,0.00,,,0.01,TxWx,2013-02-10 18:56:00,
2013-02-10 13:01:00,41.7,34.0,29.56,North,5,0.0,0.0,75,0.00,,,0.01,TxWx,2013-02-10 19:01:00,
2013-02-10 13:06:00,42.0,34.0,29.55,North,4,0.0,0.0,75,0.00,,,0.01,TxWx,2013-02-10 19:06:00,
2013-02-10 13:11:00,41.7,35.0,29.55,North,2,0.0,0.0,75,0.00,,,0.02,TxWx,2013-02-10 19:11:00,
2013-02-10 13:16:00,41.8,35.0,29.54,North,2,0.0,0.0,76,0.00,,,0.02,TxWx,2013-02-10 19:16:00,
2013-02-10 13:22:00,41.8,35.0,29.54,North,4,0.0,0.0,76,0.00,,,0.02,TxWx,2013-02-10 19:22:00,
2013-02-10 13:27:00,42.0,35.0,29.54,North,4,0.0,0.0,77,0.00,,,0.02,TxWx,2013-02-10 19:27:00,
2013-02-10 13:32:00,41.6,35.0,29.54,North,3,0.0,0.0,77,0.00,,,0.03,TxWx,2013-02-10 19:32:00,
2013-02-10 13:37:00,41.3,35.0,29.55,North,9,0.0,0.0,79,0.00,,,0.03,TxWx,2013-02-10 19:37:00,
2013-02-10 13:42:00,41.1,35.0,29.54,NNE,12,0.0,0.0,80,0.00,,,0.04,TxWx,2013-02-10 19:42:00,
2013-02-10 13:47:00,40.8,36.0,29.54,North,5,0.0,0.0,81,0.00,,,0.05,TxWx,2013-02-10 19:47:00,
2013-02-10 13:52:00,40.8,36.0,29.53,North,8,0.0,0.0,83,0.00,,,0.06,TxWx,2013-02-10 19:52:00,
2013-02-10 13:58:00,40.5,37.0,29.53,North,360,0.0,0.0,84,0.00,,,0.07,TxWx,2013-02-10 19:58:00,
2013-02-10 14:03:00,40.4,36.0,29.52,North,356,0.0,0.0,85,0.00,,,0.09,TxWx,2013-02-10 20:03:00,
2013-02-10 14:08:00,40.5,37.0,29.52,North,359,0.0,0.0,86,0.00,,,0.10,TxWx,2013-02-10 20:08:00,
2013-02-10 14:13:00,40.6,37.0,29.51,North,354,0.0,0.0,86,0.00,,,0.12,TxWx,2013-02-10 20:13:00,
2013-02-10 14:18:00,40.5,36.0,29.51,North,354,0.0,0.0,87,0.00,,,0.13,TxWx,2013-02-10 20:18:00,
2013-02-10 14:23:00,40.5,37.0,29.49,North,354,0.0,0.0,88,0.00,,,0.15,TxWx,2013-02-10 20:23:00,
2013-02-10 14:29:00,40.6,38.0,29.48,North,357,0.0,0.0,88,0.00,,,0.16,TxWx,2013-02-10 20:29:00,
2013-02-10 14:34:00,40.4,37.0,29.47,North,358,0.0,0.0,88,0.00,,,0.17,TxWx,2013-02-10 20:34:00,
2013-02-10 14:39:00,40.2,37.0,29.46,North,358,0.0,0.0,89,0.00,,,0.18,TxWx,2013-02-10 20:39:00,
2013-02-10 14:44:00,40.2,37.0,29.45,North,354,0.0,0.0,90,0.00,,,0.19,TxWx,2013-02-10 20:44:00,
2013-02-10 14:50:00,40.4,37.0,29.46,North,353,0.0,0.0,89,0.00,,,0.19,TxWx,2013-02-10 20:50:00,
2013-02-10 14:55:00,40.5,38.0,29.46,North,354,0.0,0.0,89,0.00,,,0.19,TxWx,2013-02-10 20:55:00,
2013-02-10 15:00:00,41.0,38.0,29.46,North,356,0.0,0.0,88,0.00,,,0.19,TxWx,2013-02-10 21:00:00,
2013-02-10 15:05:00,41.1,38.0,29.46,North,357,0.0,0.0,88,0.00,,,0.19,TxWx,2013-02-10 21:05:00,
2013-02-10 15:10:00,41.6,38.0,29.46,North,357,0.0,0.0,87,0.00,,,0.19,TxWx,2013-02-10 21:10:00,
2013-02-10 15:15:00,41.9,38.0,29.45,North,353,0.0,0.0,87,0.00,,,0.19,TxWx,2013-02-10 21:15:00,
2013-02-10 15:21:00,42.3,38.0,29.45,North,358,0.0,0.0,86,0.00,,,0.19,TxWx,2013-02-10 21:21:00,
2013-02-10 15:26:00,42.7,39.0,29.45,North,354,0.0,0.0,86,0.00,,,0.19,TxWx,2013-02-10 21:26:00,
2013-02-10 15:31:00,42.8,39.0,29.45,North,355,0.0,0.0,85,0.00,,,0.19,TxWx,2013-02-10 21:31:00,
2013-02-10 15:36:00,42.7,39.0,29.45,North,356,0.0,0.0,85,0.00,,,0.19,TxWx,2013-02-10 21:36:00,
2013-02-10 15:41:00,42.8,39.0,29.44,North,356,0.0,0.0,86,0.00,,,0.19,TxWx,2013-02-10 21:41:00,
2013-02-10 15:46:00,43.0,39.0,29.44,North,6,0.0,0.0,86,0.00,,,0.19,TxWx,2013-02-10 21:46:00,
2013-02-10 15:52:00,42.9,39.0,29.44,North,9,0.0,0.0,86,0.00,,,0.19,TxWx,2013-02-10 21:52:00,
2013-02-10 15:57:00,42.8,39.0,29.43,North,1,0.0,0.0,86,0.00,,,0.19,TxWx,2013-02-10 21:57:00,
2013-02-10 16:02:00,42.8,39.0,29.43,North,6,0.0,0.0,86,0.00,,,0.19,TxWx,2013-02-10 22:02:00,
2013-02-10 16:07:00,43.1,39.0,29.43,North,4,0.0,0.0,86,0.00,,,0.19,TxWx,2013-02-10 22:07:00,
2013-02-10 16:13:00,43.2,39.0,29.43,North,2,0.0,0.0,86,0.00,,,0.19,TxWx,2013-02-10 22:13:00,
2013-02-10 16:18:00,43.3,39.0,29.42,North,3,0.0,0.0,86,0.00,,,0.19,TxWx,2013-02-10 22:18:00,
2013-02-10 16:23:00,43.3,39.0,29.42,North,357,0.0,0.0,86,0.00,,,0.19,TxWx,2013-02-10 22:23:00,
2013-02-10 16:29:00,43.2,39.0,29.41,North,355,0.0,0.0,86,0.00,,,0.19,TxWx,2013-02-10 22:29:00,
2013-02-10 16:34:00,43.1,39.0,29.41,North,2,0.0,0.0,87,0.00,,,0.19,TxWx,2013-02-10 22:34:00,
2013-02-10 16:39:00,43.1,40.0,29.41,North,11,0.0,0.0,88,0.00,,,0.19,TxWx,2013-02-10 22:39:00,
2013-02-10 16:44:00,42.8,40.0,29.42,North,0,0.0,0.0,89,0.00,,,0.19,TxWx,2013-02-10 22:44:00,
2013-02-10 16:50:00,42.8,40.0,29.42,North,359,0.0,0.0,89,0.00,,,0.19,TxWx,2013-02-10 22:50:00,
2013-02-10 16:55:00,42.7,40.0,29.41,North,3,0.0,0.0,89,0.00,,,0.19,TxWx,2013-02-10 22:55:00,
2013-02-10 17:00:00,42.8,40.0,29.42,North,7,0.0,0.0,89,0.00,,,0.19,TxWx,2013-02-10 23:00:00,
2013-02-10 17:05:00,42.9,40.0,29.42,North,7,0.0,0.0,89,0.00,,,0.19,TxWx,2013-02-10 23:05:00,
2013-02-10 17:10:00,42.9,40.0,29.41,North,3,0.0,0.0,89,0.00,,,0.19,TxWx,2013-02-10 23:10:00,
2013-02-10 17:16:00,43.0,40.0,29.41,North,2,0.0,0.0,89,0.00,,,0.19,TxWx,2013-02-10 23:16:00,
2013-02-10 17:21:00,43.1,40.0,29.41,North,3,0.0,0.0,89,0.00,,,0.19,TxWx,2013-02-10 23:21:00,
2013-02-10 17:26:00,43.3,40.0,29.40,North,358,0.0,0.0,88,0.00,,,0.19,TxWx,2013-02-10 23:26:00,
2013-02-10 17:31:00,43.5,41.0,29.41,North,3,0.0,0.0,88,0.00,,,0.19,TxWx,2013-02-10 23:31:00,
2013-02-10 17:36:00,43.7,40.0,29.40,North,358,0.0,0.0,87,0.00,,,0.19,TxWx,2013-02-10 23:36:00,
2013-02-10 17:42:00,43.6,40.0,29.40,North,354,0.0,0.0,87,0.00,,,0.19,TxWx,2013-02-10 23:42:00,
2013-02-10 17:47:00,43.7,40.0,29.41,North,353,0.0,0.0,87,0.00,,,0.19,TxWx,2013-02-10 23:47:00,
2013-02-10 17:52:00,43.7,40.0,29.41,North,356,0.0,0.0,87,0.00,,,0.19,TxWx,2013-02-10 23:52:00,
2013-02-10 17:57:00,43.6,41.0,29.41,North,354,0.0,0.0,88,0.00,,,0.19,TxWx,2013-02-10 23:57:00,
2013-02-10 18:02:00,43.4,40.0,29.41,NNE,23,0.0,0.0,89,0.00,,,0.19,TxWx,2013-02-11 00:02:00,
2013-02-10 18:08:00,43.2,40.0,29.41,North,356,0.0,0.0,90,0.00,,,0.19,TxWx,2013-02-11 00:08:00,
2013-02-10 18:13:00,43.2,40.0,29.41,North,354,0.0,0.0,91,0.00,,,0.19,TxWx,2013-02-11 00:13:00,
2013-02-10 18:18:00,43.1,41.0,29.41,North,353,0.0,0.0,91,0.00,,,0.19,TxWx,2013-02-11 00:18:00,
2013-02-10 18:23:00,43.1,41.0,29.41,North,351,0.0,0.0,92,0.00,,,0.19,TxWx,2013-02-11 00:23:00,
2013-02-10 18:29:00,42.9,41.0,29.41,North,356,0.0,0.0,92,0.00,,,0.19,TxWx,2013-02-11 00:29:00,
2013-02-10 18:34:00,42.7,41.0,29.41,North,351,0.0,0.0,93,0.00,,,0.19,TxWx,2013-02-11 00:34:00,
2013-02-10 18:39:00,42.9,41.0,29.41,North,353,0.0,0.0,93,0.00,,,0.20,TxWx,2013-02-11 00:39:00,
2013-02-10 18:45:00,42.8,41.0,29.41,North,353,0.0,0.0,93,0.00,,,0.20,TxWx,2013-02-11 00:45:00,
2013-02-10 18:50:00,42.9,41.0,29.41,North,357,0.0,0.0,94,0.00,,,0.20,TxWx,2013-02-11 00:50:00,
2013-02-10 18:55:00,43.1,41.0,29.41,North,357,0.0,0.0,94,0.00,,,0.20,TxWx,2013-02-11 00:55:00,
2013-02-10 19:00:00,43.0,41.0,29.41,North,358,0.0,0.0,94,0.00,,,0.20,TxWx,2013-02-11 01:00:00,
2013-02-10 19:05:00,43.1,41.0,29.41,North,1,0.0,0.0,94,0.00,,,0.20,TxWx,2013-02-11 01:05:00,
2013-02-10 19:11:00,43.2,41.0,29.40,North,357,0.0,0.0,94,0.00,,,0.20,TxWx,2013-02-11 01:11:00,
2013-02-10 19:16:00,43.3,42.0,29.40,North,0,0.0,0.0,95,0.00,,,0.20,TxWx,2013-02-11 01:16:00,
2013-02-10 19:21:00,43.2,42.0,29.40,North,356,0.0,0.0,95,0.00,,,0.20,TxWx,2013-02-11 01:21:00,
2013-02-10 19:26:00,43.5,42.0,29.40,North,1,0.0,0.0,95,0.00,,,0.20,TxWx,2013-02-11 01:26:00,
2013-02-10 19:31:00,43.5,43.0,29.40,North,353,0.0,0.0,95,0.00,,,0.20,TxWx,2013-02-11 01:31:00,
2013-02-10 19:37:00,43.7,43.0,29.39,North,354,0.0,0.0,95,0.00,,,0.20,TxWx,2013-02-11 01:37:00,
2013-02-10 19:42:00,43.9,43.0,29.39,North,2,0.0,0.0,95,0.00,,,0.20,TxWx,2013-02-11 01:42:00,
2013-02-10 19:47:00,44.0,43.0,29.39,North,355,0.0,0.0,95,0.00,,,0.20,TxWx,2013-02-11 01:47:00,
2013-02-10 19:52:00,44.3,43.0,29.39,North,354,0.0,0.0,95,0.00,,,0.20,TxWx,2013-02-11 01:52:00,
2013-02-10 19:57:00,44.5,44.0,29.39,North,351,0.0,0.0,95,0.00,,,0.20,TxWx,2013-02-11 01:57:00,
2013-02-10 20:02:00,44.4,43.0,29.39,NW,313,0.0,0.0,95,0.00,,,0.20,TxWx,2013-02-11 02:02:00,
2013-02-10 20:08:00,44.9,44.0,29.39,NNW,348,0.0,0.0,95,0.00,,,0.20,TxWx,2013-02-11 02:08:00,
2013-02-10 20:13:00,45.3,44.0,29.39,North,3,0.0,0.0,95,0.00,,,0.20,TxWx,2013-02-11 02:13:00,
2013-02-10 20:18:00,45.7,45.0,29.39,North,352,0.0,0.0,95,0.00,,,0.20,TxWx,2013-02-11 02:18:00,
2013-02-10 20:23:00,46.2,45.0,29.39,North,350,0.0,0.0,95,0.00,,,0.20,TxWx,2013-02-11 02:23:00,
2013-02-10 20:28:00,46.4,44.0,29.38,North,358,0.0,0.0,94,0.00,,,0.20,TxWx,2013-02-11 02:28:00,
2013-02-10 20:33:00,46.7,45.0,29.38,NNW,348,0.0,0.0,94,0.00,,,0.20,TxWx,2013-02-11 02:33:00,
2013-02-10 20:38:00,46.8,45.0,29.38,North,351,0.0,0.0,94,0.00,,,0.20,TxWx,2013-02-11 02:38:00,
2013-02-10 20:44:00,47.0,45.0,29.38,North,1,0.0,0.0,93,0.00,,,0.20,TxWx,2013-02-11 02:44:00,
2013-02-10 20:49:00,47.2,45.0,29.38,North,359,0.0,0.0,93,0.00,,,0.20,TxWx,2013-02-11 02:49:00,
2013-02-10 20:54:00,47.3,45.0,29.37,North,353,0.0,0.0,93,0.00,,,0.20,TxWx,2013-02-11 02:54:00,
2013-02-10 20:59:00,47.4,45.0,29.37,North,352,0.0,0.0,92,0.00,,,0.20,TxWx,2013-02-11 02:59:00,
2013-02-10 21:07:00,47.5,46.0,29.37,North,356,0.0,0.0,92,0.00,,,0.20,TxWx,2013-02-11 03:07:00,
2013-02-10 21:12:00,47.5,46.0,29.36,North,353,0.0,0.0,92,0.00,,,0.20,TxWx,2013-02-11 03:12:00,
2013-02-10 21:17:00,47.9,46.0,29.36,North,353,0.0,0.0,92,0.00,,,0.20,TxWx,2013-02-11 03:17:00,
2013-02-10 21:23:00,47.8,46.0,29.36,North,350,0.0,0.0,92,0.00,,,0.20,TxWx,2013-02-11 03:23:00,
2013-02-10 21:28:00,47.8,45.0,29.36,North,350,0.0,0.0,91,0.00,,,0.20,TxWx,2013-02-11 03:28:00,
2013-02-10 21:33:00,47.6,45.0,29.35,NNW,347,0.0,0.0,91,0.00,,,0.20,TxWx,2013-02-11 03:33:00,
2013-02-10 21:38:00,47.5,45.0,29.35,NNW,339,0.0,0.0,91,0.00,,,0.20,TxWx,2013-02-11 03:38:00,
2013-02-10 21:43:00,47.6,45.0,29.35,NNW,344,0.0,0.0,91,0.00,,,0.20,TxWx,2013-02-11 03:43:00,
2013-02-10 21:49:00,48.1,45.0,29.35,NNW,347,0.0,0.0,91,0.00,,,0.20,TxWx,2013-02-11 03:49:00,
2013-02-10 21:54:00,48.4,45.0,29.35,North,352,0.0,0.0,91,0.00,,,0.20,TxWx,2013-02-11 03:54:00,
2013-02-10 21:59:00,48.5,46.0,29.35,North,349,0.0,0.0,90,0.00,,,0.20,TxWx,2013-02-11 03:59:00,
2013-02-10 22:04:00,48.6,46.0,29.35,NNW,346,0.0,0.0,90,0.00,,,0.20,TxWx,2013-02-11 04:04:00,
2013-02-10 22:09:00,49.0,46.0,29.35,North,354,0.0,0.0,89,0.00,,,0.20,TxWx,2013-02-11 04:09:00,
2013-02-10 22:14:00,49.0,46.0,29.35,North,352,0.0,0.0,89,0.00,,,0.20,TxWx,2013-02-11 04:14:00,
2013-02-10 22:20:00,49.0,46.0,29.35,North,354,0.0,0.0,88,0.00,,,0.20,TxWx,2013-02-11 04:20:00,
2013-02-10 22:25:00,49.1,45.0,29.35,North,355,0.0,0.0,88,0.00,,,0.20,TxWx,2013-02-11 04:25:00,
2013-02-10 22:30:00,49.0,45.0,29.35,North,354,0.0,0.0,88,0.00,,,0.20,TxWx,2013-02-11 04:30:00,
2013-02-10 22:36:00,48.9,45.0,29.34,North,354,0.0,0.0,88,0.00,,,0.20,TxWx,2013-02-11 04:36:00,
2013-02-10 22:41:00,49.0,45.0,29.35,North,351,0.0,0.0,88,0.00,,,0.20,TxWx,2013-02-11 04:41:00,
2013-02-10 22:46:00,48.8,45.0,29.34,North,352,0.0,0.0,87,0.00,,,0.20,TxWx,2013-02-11 04:46:00,
2013-02-10 22:51:00,48.8,45.0,29.34,North,354,0.0,0.0,87,0.00,,,0.20,TxWx,2013-02-11 04:51:00,
2013-02-10 22:56:00,48.8,45.0,29.34,North,357,0.0,0.0,88,0.00,,,0.20,TxWx,2013-02-11 04:56:00,
2013-02-10 23:00:00,48.8,45.0,29.34,North,354,0.0,0.0,87,0.00,,,0.20,TxWx,2013-02-11 05:00:00,
2013-02-10 23:01:00,48.8,45.0,29.34,North,355,0.0,0.0,88,0.00,,,0.20,TxWx,2013-02-11 05:01:00,
2013-02-10 23:06:00,48.9,45.0,29.34,North,353,0.0,0.0,87,0.00,,,0.00,TxWx,2013-02-11 05:06:00,
2013-02-10 23:11:00,49.1,45.0,29.34,North,355,0.0,0.0,87,0.00,,,0.00,TxWx,2013-02-11 05:11:00,
2013-02-10 23:17:00,49.3,45.0,29.35,North,352,0.0,0.0,87,0.00,,,0.00,TxWx,2013-02-11 05:17:00,
2013-02-10 23:22:00,49.4,45.0,29.34,North,351,0.0,0.0,86,0.00,,,0.00,TxWx,2013-02-11 05:22:00,
2013-02-10 23:27:00,49.4,45.0,29.34,North,352,0.0,0.0,86,0.00,,,0.00,TxWx,2013-02-11 05:27:00,
2013-02-10 23:32:00,49.4,45.0,29.34,NNW,346,0.0,0.0,86,0.00,,,0.00,TxWx,2013-02-11 05:32:00,
2013-02-10 23:37:00,49.6,46.0,29.35,North,354,0.0,0.0,86,0.00,,,0.00,TxWx,2013-02-11 05:37:00,
2013-02-10 23:39:00,49.6,46.0,29.35,North,351,0.0,0.0,86,0.00,,,0.00,TxWx,2013-02-11 05:39:00,
2013-02-10 23:44:00,49.4,45.0,29.35,North,353,0.0,0.0,86,0.00,,,0.00,TxWx,2013-02-11 05:44:00,
2013-02-10 23:49:00,49.4,45.0,29.35,North,354,0.0,0.0,86,0.00,,,0.00,TxWx,2013-02-11 05:49:00,
2013-02-10 23:54:00,49.2,45.0,29.35,North,354,0.0,0.0,86,0.00,,,0.00,TxWx,2013-02-11 05:54:00,
2013-02-10 23:59:00,49.2,45.0,29.35,North,355,0.0,0.0,85,0.00,,,0.00,TxWx,2013-02-11 05:59:00,